Terminal Aerodrome Forecast
Issued by NWS

Home | Current Version | Previous Version | Text Only | Print | Product List | Glossary On
Versions: 1 2 3 4 5 6 7 8 9 10 11 12 13 14 15 16 17 18 19 20 21
000
FTUS41 KOKX 290530
TAFHPN
TAF
KHPN 290530Z 2906/3006 31012G18KT P6SM FEW030 BKN040 BKN100
     FM290800 33012G18KT P6SM SCT050 SCT250
     FM291400 33010KT P6SM SCT250
     FM292000 27008KT P6SM SCT250
     FM292300 22007KT P6SM SCT250
     FM300200 19004KT P6SM SCT250
      AMD NOT SKED=

USA.gov is the U.S. government's official web portal to all federal, state and local government web resources and services.